Tracking 29747 objects as of 9-Oct-2024
HD Live streaming from Space Station
objects crossing your sky now

BREEZE-M DEB

Track BREEZE-M DEB now!
10-day predictions


NORAD ID: 38622
Int'l Code: 2008-011BV
Perigee: 457.9 km
Apogee: 26,532.5 km
Inclination: 48.9 °
Period: 464.4 minutes
Semi major axis: 19866 km
RCS: 0.1286 m2 (medium)
Launch date: March 14, 2008
Source: Commonwealth of Independent States (former USSR) (CIS)
Launch site: TYURATAM MISSILE AND SPACE COMPLEX (TTMTR)

Note: This is SATELLITE DEBRIS
Your satellite tracking list
Your tracking list is empty




NASA's NSSDC Master Catalog

Two Line Element Set (TLE):
1 38622U 08011BV  24283.22728693  .00006206  00000-0  15576-1 0  9998
2 38622  48.9354 111.5499 6562574 126.1132 313.7673  3.10049200146210
Source of the keplerian elements: AFSPC